Location: Aragnouet
(42.7874°N, 0.2165°E)
Time: 00:18:11
(UTC+00:00)

Cosmos 1758 Rocket - Pass Details

Date: 09 April 2020
Orbit: 602 x 635 km, 82.5° (Epoch: 02 June)

Event Time Altitude Azimuth Distance (km) Brightness Sun altitude
Rises 19:18:44 0° 350° (N) 2,874 7.4 -8.6°
Reaches altitude 10° 19:20:58 10° 349° (NNW) 1,962 6.6 -9.0°
Maximum altitude 19:25:18 76° 264° (W) 625 3.7 -9.7°
Drops below altitude 10° 19:29:35 10° 179° (S) 1,941 5.9 -10.4°
Sets 19:31:47 0° 177° (S) 2,839 6.7 -10.8°
